Location: Evensen
(52.5775°N, 9.5258°E)
Time: 20:40:51
(UTC+00:00)

CZ-4B R/B - Pass Details

Date: 15 May 2026
Orbit: 700 x 797 km, 98.9° (Epoch: 7 June)

Event Time Altitude Azimuth Distance (km) Brightness Sun altitude
Exits shadow 21:23:15 13° 193° (SSW) 1,966 5.2 -14.2°
Maximum altitude 21:27:11 41° 261° (W) 1,027 4.3 -14.4°
Drops below altitude 10° 21:31:49 10° 333° (NNW) 2,231 7.3 -14.7°
Sets 21:34:15 0° 340° (NNW) 3,172 8.6 -14.9°
